Stations météo

réclame
Mon MeteoGroup
Santander, Espagne (8023): Température de l'air & dewpoint: 05.12.2017 23:00:00 - 11.12.2017 23:00:00 (CET)Santander, Espagne (8023): Vitesse du vent & gusts: 05.12.2017 23:00:00 - 11.12.2017 23:00:00 (CET)Santander, Espagne (8023): Direction du vent: 05.12.2017 23:00:00 - 11.12.2017 23:00:00 (CET)Santander, Espagne (8023): reduced air pressure: 05.12.2017 23:00:00 - 11.12.2017 23:00:00 (CET)Santander, Espagne (8023): visibility: 05.12.2017 23:00:00 - 11.12.2017 23:00:00 (CET)Santander, Espagne (8023): Quantités de précipitations: 05.12.2017 23:00:00 - 11.12.2017 23:00:00 (CET)
Date & Time tt [°C] td [°C] ff [km/h] ff [knt] fx [km/h] fx [knt] dd ppp [hPa] vv [km] rr [mm]
11.12.2017 23:00:00 8,4 4,6 48 26 80 43 NNW 1006,7 4,5 1,0
11.12.2017 22:00:00 10,1 3,6 41 22 - - NW 1004,9 10 -
11.12.2017 21:00:00 9,4 1,5 46 25 85 46 NNW 1003,6 7 0,0
11.12.2017 20:00:00 9,8 4,4 37 20 - - NW 1001,8 6 0,0
11.12.2017 19:00:00 9,4 4,8 46 25 - - NW 1000,2 8 -
11.12.2017 18:00:00 7,6 5,6 21 11 - - W 998,9 6 0,2
11.12.2017 17:00:00 7,7 5,3 42 23 80 43 W 997,1 6 1,0
11.12.2017 16:00:00 6,3 4,9 39 21 - - W 995,5 10 -
11.12.2017 15:00:00 7,7 6,0 41 22 - - W 994,3 11 2,0
11.12.2017 14:00:00 8,2 5,7 46 25 78 42 W 993,5 3,5 0,8
11.12.2017 13:00:00 9,0 5,7 44 24 - - W 992,7 8 -
11.12.2017 12:00:00 8,7 5,3 37 20 - - W 992,0 4,9 1,0
11.12.2017 11:00:00 10,5 5,5 41 22 78 42 W 990,6 13 0,0
11.12.2017 10:00:00 10,3 5,1 44 24 - - WNW 989,7 12 -
11.12.2017 09:00:00 8,9 4,7 34 18 - - W 988,6 15 0,0
11.12.2017 08:00:00 8,9 5,1 39 21 - - W 988,0 13 0,0
11.12.2017 07:00:00 9,1 4,3 28 15 - - WSW 987,5 20 -
11.12.2017 06:00:00 9,4 5,2 31 17 - - W 986,4 13 0,0
11.12.2017 05:00:00 9,9 5,7 18 10 - - WSW 986,4 19 0,0
11.12.2017 04:00:00 10,3 6,6 50 27 - - W 984,4 8 -
11.12.2017 03:00:00 11,1 6,8 57 31 80 43 W 984,1 16 0,2
11.12.2017 02:00:00 11,0 8,6 39 21 - - W 982,9 13 3,0
11.12.2017 01:00:00 10,3 8,9 41 22 - - W 982,7 3,0 -
11.12.2017 00:00:00 11,2 8,9 57 31 98 53 W 983,1 2,2 3,0
10.12.2017 23:00:00 17,5 8,1 39 21 - - SSW 978,5 20 0,0
10.12.2017 22:00:00 16,5 9,7 26 14 - - SSW 981,0 20 -
10.12.2017 21:00:00 12,7 11,3 5 3 - - E 984,7 16 0,2
10.12.2017 20:00:00 12,0 11,1 24 13 - - ESE 987,7 7 1,0
10.12.2017 19:00:00 11,6 10,8 11 6 - - SSE 991,9 8 -
10.12.2017 18:00:00 11,5 10,7 18 10 - - S 994,3 6 3,0
10.12.2017 17:00:00 11,8 10,9 13 7 - - WSW 997,9 2,9 2,0
10.12.2017 16:00:00 12,0 10,9 26 14 - - W 998,4 3,0 -
10.12.2017 15:00:00 12,4 11,5 22 12 - - W 1000,3 2,9 6,0
10.12.2017 14:00:00 14,0 12,4 26 14 - - WNW 1002,2 3,1 2,0
10.12.2017 13:00:00 14,1 10,9 26 14 - - NNW 1002,8 9 -
10.12.2017 12:00:00 16,3 8,8 21 11 - - SW 1003,0 17 0,0
10.12.2017 11:00:00 15,2 8,7 22 12 - - SSW 1004,5 14 0,2
10.12.2017 10:00:00 15,4 8,4 26 14 - - SSW 1005,3 14 -
10.12.2017 09:00:00 16,6 7,2 24 13 - - SSW 1005,2 20 0,0
10.12.2017 08:00:00 16,6 7,2 24 13 - - SSW 1006,0 20 0,0
10.12.2017 07:00:00 16,1 7,3 24 13 - - SSW 1007,4 12 -
10.12.2017 06:00:00 15,2 7,7 22 12 - - SSW 1008,4 20 0,0
10.12.2017 05:00:00 15,3 8,3 16 9 - - SSW 1009,8 20 0,0
10.12.2017 04:00:00 15,5 8,2 11 6 - - SW 1011,6 12 -
10.12.2017 03:00:00 15,9 9,1 16 9 - - WSW 1012,1 20 0,0
10.12.2017 02:00:00 15,9 9,8 21 11 - - WSW 1012,8 20 0,0
10.12.2017 01:00:00 15,3 10,7 21 11 - - WSW 1013,8 12 -
10.12.2017 00:00:00 15,4 11,0 26 14 - - W 1014,5 20 0,0
09.12.2017 23:00:00 15,0 10,8 18 10 - - WSW 1014,9 20 0,0
09.12.2017 22:00:00 14,5 11,3 18 10 - - WSW 1015,4 15 -
09.12.2017 21:00:00 13,8 11,5 16 9 - - WSW 1015,9 20 0,2
09.12.2017 20:00:00 13,5 10,8 18 10 - - WSW 1016,2 14 0,0
09.12.2017 19:00:00 12,0 10,4 18 10 - - SW 1016,6 15 -
09.12.2017 18:00:00 11,4 10,1 16 9 - - SW 1017,1 7 0,0
09.12.2017 17:00:00 10,1 8,9 9 5 - - SSW 1018,3 3,0 0,0
09.12.2017 16:00:00 10,3 8,4 9 5 - - SE 1018,8 10 -
09.12.2017 15:00:00 10,8 8,2 8 4 - - SE 1020,4 19 0,0
09.12.2017 14:00:00 10,9 8,3 8 4 - - S 1022,1 18 0,0
09.12.2017 13:00:00 10,9 7,6 11 6 - - S 1023,5 12 -
09.12.2017 12:00:00 10,3 6,8 9 5 - - SSW 1025,2 20 0,0
09.12.2017 11:00:00 9,6 6,5 13 7 - - SSW 1025,8 20 0,0
09.12.2017 10:00:00 9,1 6,4 15 8 - - SSW 1026,1 15 -
09.12.2017 09:00:00 8,6 6,6 13 7 - - SSW 1026,4 20 0,0
09.12.2017 08:00:00 8,3 6,8 15 8 - - SSW 1026,4 20 0,0
09.12.2017 07:00:00 8,5 7,3 13 7 - - SSW 1026,9 20 -
09.12.2017 06:00:00 8,6 7,5 11 6 - - SSW 1027,0 18 0,0
09.12.2017 05:00:00 8,6 7,5 11 6 - - SW 1027,2 14 0,0
09.12.2017 04:00:00 8,8 7,6 11 6 - - SW 1027,7 16 -
09.12.2017 03:00:00 8,7 7,6 11 6 - - SW 1028,0 12 0,0
09.12.2017 02:00:00 8,9 7,8 9 5 - - SSW 1028,3 11 0,0
09.12.2017 01:00:00 9,1 7,7 11 6 - - WSW 1028,8 6 -
09.12.2017 00:00:00 9,6 7,7 8 4 - - WSW 1029,0 15 0,0
08.12.2017 23:00:00 9,5 7,9 4 2 - - WSW 1029,0 9 2,0
08.12.2017 22:00:00 10,1 8,4 8 4 - - N 1028,9 11 -
08.12.2017 21:00:00 9,1 8,5 8 4 - - SW 1028,8 9 0,2
08.12.2017 20:00:00 9,2 8,6 9 5 - - WSW 1028,7 - 0,6
08.12.2017 19:00:00 9,3 8,7 9 5 - - WSW 1028,7 5 -
08.12.2017 18:00:00 9,5 8,6 8 4 - - WSW 1028,5 2,8 0,4
08.12.2017 17:00:00 10,0 8,6 9 5 - - W 1028,4 7 0,4
08.12.2017 16:00:00 10,3 8,6 4 2 - - W 1028,3 7 -
08.12.2017 15:00:00 10,6 8,0 11 6 - - NNW 1028,0 10 0,4
08.12.2017 14:00:00 10,8 9,2 8 4 - - NNW 1028,2 6 0,2
08.12.2017 13:00:00 10,6 9,5 13 7 - - NNE 1028,8 10 -
08.12.2017 12:00:00 11,1 9,8 13 7 - - N 1028,9 3,6 0,8
08.12.2017 11:00:00 11,4 10,3 18 10 - - NNE 1028,7 6 1,0
08.12.2017 10:00:00 11,6 10,5 5 3 - - N 1028,0 5 -
08.12.2017 09:00:00 11,4 10,5 9 5 - - NNW 1027,5 3,8 0,8
08.12.2017 08:00:00 11,6 10,3 13 7 - - NW 1026,8 3,7 0,6
08.12.2017 07:00:00 11,9 11,1 16 9 - - NNW 1026,5 15 -
08.12.2017 06:00:00 12,1 11,6 21 11 - - N 1026,1 6 0,6
08.12.2017 05:00:00 12,6 12,1 11 6 - - N 1025,8 4,0 0,8
08.12.2017 04:00:00 12,6 12,0 16 9 - - NW 1025,3 2,0 -
08.12.2017 03:00:00 12,2 11,3 18 10 - - WSW 1024,9 1,4 6,0
08.12.2017 02:00:00 11,7 9,8 13 7 - - WSW 1025,2 2,4 2,0
08.12.2017 01:00:00 12,4 9,2 9 5 - - WSW 1025,3 5 -
08.12.2017 00:00:00 13,8 9,6 16 9 - - WSW 1025,2 6 0,2
07.12.2017 23:00:00 12,9 8,4 16 9 - - SSW 1025,1 11 0,0
07.12.2017 22:00:00 12,4 8,3 22 12 - - SSW 1025,4 25 -
07.12.2017 21:00:00 12,5 8,0 13 7 - - SW 1025,6 17 0,0
07.12.2017 20:00:00 13,7 4,3 16 9 - - SW 1025,3 20 0,0
07.12.2017 19:00:00 13,2 4,1 22 12 - - SSW 1024,5 12 -
07.12.2017 18:00:00 13,5 4,1 24 13 - - SSW 1024,4 20 0,0
07.12.2017 17:00:00 14,2 4,5 21 11 - - SSW 1024,7 20 0,0
07.12.2017 16:00:00 15,6 4,9 18 10 - - SSW 1024,7 16 -
07.12.2017 15:00:00 14,7 4,9 18 10 - - SSW 1025,0 20 0,0
07.12.2017 14:00:00 14,3 4,0 21 11 - - SSW 1025,6 20 0,0
07.12.2017 13:00:00 13,7 2,6 22 12 - - SSW 1026,1 25 -
07.12.2017 12:00:00 13,3 1,3 22 12 - - SSW 1026,8 20 0,0
07.12.2017 11:00:00 12,5 0,2 21 11 - - SSW 1027,5 20 0,0
07.12.2017 10:00:00 11,4 -0,4 24 13 - - SSW 1027,4 25 -
07.12.2017 09:00:00 11,8 -1,4 21 11 - - SSW 1027,6 20 0,0
07.12.2017 08:00:00 11,0 -0,8 22 12 - - SSW 1027,2 20 0,0
07.12.2017 07:00:00 10,0 -0,2 11 6 - - SW 1027,7 20 -
07.12.2017 06:00:00 9,8 0,4 11 6 - - S 1027,6 20 0,0
07.12.2017 05:00:00 9,7 0,3 4 2 - - NNW 1027,8 20 0,0
07.12.2017 04:00:00 9,3 -0,3 4 2 - - SSW 1028,2 20 -
07.12.2017 03:00:00 9,4 0,3 16 9 - - SSW 1028,4 20 0,0
07.12.2017 02:00:00 9,9 -0,6 11 6 - - SSW 1028,9 20 0,0
07.12.2017 01:00:00 9,0 -0,3 15 8 - - SSW 1029,0 20 -
07.12.2017 00:00:00 9,2 -0,4 11 6 - - SSW 1029,5 20 0,0
06.12.2017 23:00:00 8,3 0,7 16 9 - - SSW 1029,8 20 0,0
06.12.2017 22:00:00 9,2 0,4 21 11 - - SSW 1030,2 20 -
06.12.2017 21:00:00 9,2 -0,2 18 10 - - SSW 1030,5 20 0,0
06.12.2017 20:00:00 8,9 2,2 16 9 - - SSW 1030,7 20 0,0
06.12.2017 19:00:00 9,9 3,8 8 4 - - SW 1030,9 20 -
06.12.2017 18:00:00 9,8 4,6 5 3 - - W 1031,0 20 0,0
06.12.2017 17:00:00 10,6 4,9 5 3 - - W 1031,0 20 0,0
06.12.2017 16:00:00 11,7 4,4 8 4 - - W 1030,9 30 -
06.12.2017 15:00:00 11,1 3,4 2 1 - - NNW 1031,2 20 0,0
06.12.2017 14:00:00 10,7 2,3 4 2 - - N 1031,5 20 0,0
06.12.2017 13:00:00 10,5 3,1 4 2 - - NNE 1032,0 50 -
06.12.2017 12:00:00 11,3 0,7 4 2 - - WSW 1032,8 20 0,0
06.12.2017 11:00:00 10,4 2,2 4 2 - - S 1033,1 20 0,0
06.12.2017 10:00:00 8,1 1,2 8 4 - - SSW 1033,2 50 -
06.12.2017 09:00:00 5,9 0,8 11 6 - - SSW 1032,9 20 0,0
06.12.2017 08:00:00 6,0 1,3 8 4 - - SSW 1032,9 20 0,0
06.12.2017 07:00:00 6,0 1,5 8 4 - - SW 1033,1 20 -
06.12.2017 06:00:00 5,6 1,7 8 4 - - S 1033,2 20 0,0
06.12.2017 05:00:00 6,0 2,3 8 4 - - S 1033,5 20 0,0
06.12.2017 04:00:00 5,9 2,0 9 5 - - S 1033,8 20 -
06.12.2017 03:00:00 5,7 2,7 9 5 - - S 1033,9 20 0,0
06.12.2017 02:00:00 6,3 2,7 9 5 - - S 1034,2 20 0,0
06.12.2017 01:00:00 6,7 2,9 11 6 - - SSE 1034,5 20 -
06.12.2017 00:00:00 6,2 2,8 11 6 - - SSE 1034,6 20 0,0
05.12.2017 23:00:00 6,2 2,6 15 8 - - SSE 1034,7 20 0,0

tt = Température de l'air
td = dewpoint
ff = Vitesse du vent
fx = gusts
dd = Direction du vent
ppp = reduced air pressure
vv = visibility
rr = Quantités de précipitations

stations d'obs. à proximité